Simultaneous Nadir Overpasses (SNOs) Predictions

Prediction of SNOs between METOP-B and NPP Satellite Orbit:

Table of predicted SNOs for the next 14.0 days since TLE Epoch: 1/15/2022
Index Date (METOP-B) Time (METOP-B) Lat,Lon (METOP-B) SZA (METOP-B ) Date (NPP) Time (NPP) Lat,Lon (NPP) SZA (NPP ) Distance(km) Time Diff (sec)
1 01/20/2022 03:37:26 -73.55, -60.72 86.22 01/20/2022 03:36:20 -73.56, -63.85 86.04 98.50 66
2 01/20/2022 04:28:10 73.33, 106.13 93.59 01/20/2022 04:27:01 73.32, 104.00 93.70 67.78 69
3 01/20/2022 05:18:54 -73.22, -86.78 86.52 01/20/2022 05:17:43 -73.22, -88.46 86.43 53.74 71
4 01/20/2022 06:09:38 73.01, 80.07 93.28 01/20/2022 06:08:25 73.03, 79.27 93.36 26.39 73
5 01/20/2022 07:00:21 -72.95,-112.72 86.78 01/20/2022 06:59:07 -72.93,-113.20 86.76 16.06 74
6 01/20/2022 07:51:03 72.83, 54.36 93.11 01/20/2022 07:49:51 72.84, 54.30 93.14 2.27 72
7 01/20/2022 08:41:45 -72.83,-138.32 86.91 01/20/2022 08:40:35 -72.84,-138.39 86.88 2.63 70
8 01/20/2022 09:32:25 72.81, 28.98 93.07 01/20/2022 09:31:20 72.80, 29.01 93.08 1.55 65
9 01/20/2022 10:23:07 -72.80,-163.71 86.94 01/20/2022 10:22:04 -72.80,-163.68 86.94 1.10 63
10 01/20/2022 11:13:47 72.78, 3.59 93.04 01/20/2022 11:12:50 72.81, 3.61 93.07 2.82 57
11 01/20/2022 12:04:29 -72.78, 170.91 86.98 01/20/2022 12:03:34 -72.81, 170.93 86.94 3.26 55
12 01/20/2022 12:55:08 72.81, -21.70 93.05 01/20/2022 12:54:20 72.82, -21.78 93.07 2.96 48
13 01/20/2022 13:45:50 -72.81, 145.62 86.97 01/20/2022 13:45:04 -72.82, 145.53 86.94 3.26 46
14 01/20/2022 14:36:30 72.79, -47.08 93.01 01/20/2022 14:35:49 72.78, -47.07 93.01 1.13 41
15 01/20/2022 15:27:11 -72.78, 120.24 87.00 01/20/2022 15:26:32 -72.78, 120.24 87.00 0.64 39
16 01/20/2022 16:17:51 72.76, -72.47 92.97 01/20/2022 16:17:18 72.79, -72.47 93.01 2.72 33
17 01/20/2022 17:08:33 -72.76, 94.85 87.04 01/20/2022 17:08:02 -72.79, 94.85 87.01 3.13 31
18 01/20/2022 17:59:13 72.74, -97.86 92.94 01/20/2022 17:58:47 72.75, -97.76 92.95 3.48 26
19 01/20/2022 18:49:55 -72.74, 69.46 87.08 01/20/2022 18:49:31 -72.75, 69.56 87.06 3.41 24
20 01/20/2022 19:40:34 72.77,-123.14 92.95 01/20/2022 19:40:17 72.76,-123.15 92.94 1.08 17
21 01/20/2022 20:31:16 -72.76, 44.18 87.07 01/20/2022 20:31:01 -72.76, 44.16 87.07 0.84 15
22 01/20/2022 21:21:56 72.74,-148.53 92.91 01/20/2022 21:21:47 72.77,-148.55 92.94 2.82 9
23 01/20/2022 22:12:38 -72.74, 18.79 87.10 01/20/2022 22:12:31 -72.77, 18.76 87.07 3.19 7
24 01/20/2022 23:03:18 72.72,-173.92 92.88 01/20/2022 23:03:16 72.73,-173.84 92.88 2.78 2
25 01/20/2022 23:54:00 -72.72, -6.60 87.14 01/20/2022 23:54:00 -72.73, -6.53 87.13 2.70 0
26 01/21/2022 00:44:39 72.75, 160.80 92.88 01/21/2022 00:44:46 72.74, 160.76 92.88 1.46 7
27 01/21/2022 01:35:21 -72.75, -31.88 87.13 01/21/2022 01:35:30 -72.74, -31.92 87.14 1.46 9
28 01/21/2022 02:26:01 72.72, 135.41 92.85 01/21/2022 02:26:16 72.75, 135.37 92.87 3.09 15
29 01/21/2022 03:16:43 -72.72, -57.27 87.17 01/21/2022 03:16:59 -72.70, -57.21 87.20 3.20 16
30 01/21/2022 04:07:23 72.70, 110.02 92.81 01/21/2022 04:07:45 72.71, 110.08 92.81 2.10 22
31 01/21/2022 04:58:05 -72.70, -82.66 87.20 01/21/2022 04:58:29 -72.71, -82.61 87.20 2.02 24
32 01/21/2022 05:48:44 72.73, 84.74 92.82 01/21/2022 05:49:15 72.72, 84.68 92.81 2.05 31
33 01/21/2022 06:39:26 -72.73,-107.94 87.19 01/21/2022 06:39:59 -72.72,-108.00 87.20 2.18 33
34 01/21/2022 07:30:06 72.70, 59.35 92.78 01/21/2022 07:30:44 72.68, 59.39 92.75 3.14 38
35 01/21/2022 08:20:48 -72.70,-133.33 87.23 01/21/2022 08:21:28 -72.68,-133.29 87.26 2.85 40
36 01/21/2022 09:11:28 72.68, 33.96 92.75 01/21/2022 09:12:14 72.69, 33.99 92.75 1.50 46
37 01/21/2022 10:02:10 -72.68,-158.72 87.27 01/21/2022 10:02:58 -72.69,-158.69 87.27 1.43 48
38 01/21/2022 10:52:49 72.71, 8.68 92.76 01/21/2022 10:53:44 72.70, 8.60 92.74 2.72 55
39 01/21/2022 11:43:31 -72.71, 176.00 87.26 01/21/2022 11:44:28 -72.70, 175.92 87.27 2.93 57
40 01/21/2022 12:34:11 72.68, -16.71 92.72 01/21/2022 12:35:13 72.66, -16.69 92.68 2.84 62
41 01/21/2022 13:24:53 -72.68, 150.61 87.29 01/21/2022 13:25:57 -72.66, 150.62 87.33 2.67 64
42 01/21/2022 14:15:33 72.66, -42.10 92.68 01/21/2022 14:16:43 72.67, -42.09 92.68 1.09 70
43 01/21/2022 15:06:15 -72.66, 125.23 87.33 01/21/2022 15:07:27 -72.67, 125.23 87.34 1.10 72
44 01/21/2022 15:56:58 72.48, -67.80 92.51 01/21/2022 15:58:10 72.53, -67.17 92.51 21.40 72
45 01/21/2022 16:47:41 -72.43, 99.43 87.54 01/21/2022 16:48:53 -72.48, 100.24 87.56 27.77 72
46 01/21/2022 17:38:25 72.20, -93.68 92.25 01/21/2022 17:39:34 72.23, -91.96 92.17 58.66 69
47 01/21/2022 18:29:08 -72.15, 73.55 87.80 01/21/2022 18:30:17 -72.18, 75.45 87.90 64.98 69



Historial Predications of SNOs between METOP-B and NPP
